Miscellaneous Local Product
Issued by NWS North Platte, NE

Home | Current Version | Previous Version | Graphics & Text | Print | Product List | Glossary On
Versions: 1 2 3 4 5 6 7 8 9 10 11 12 13 14 15 16 17 18 19 20 21 22 23 24 25 26 27 28 29 30 31 32 33 34 35 36 37 38 39 40 41 42 43 44 45 46 47 48 49 50
215
AXUS43 KLBF 022210
MISLBF


WESTERN AND NORTH CENTRAL NEBRASKA HOURLY WEATHER ROUNDUP
NATIONAL WEATHER SERVICE NORTH PLATTE NE
400 PM CST FRI DEC 02 2016

NOTE: "FAIR" INDICATES FEW OR NO CLOUDS BELOW 12,000 FEET WITH NO
SIGNIFICANT WEATHER AND/OR OBSTRUCTIONS TO VISIBILITY.

NOTE: STATIONS NOT REPORTING VARIABLES SUCH AS SKY/WEATHER OR
PRESSURE ARE PROVIDED BY RAWS AND APRS NETWORKS AND ARE NOT UNDER
NATIONAL WEATHER SERVICE QUALITY CONTROL.

...OBSERVATIONS IN AND NEAR THE EASTERN PANHANDLE OF NEBRASKA...

CITY           SKY/WX    TMP DP  RH WIND       PRES   REMARKS
PINE RIDGE     SUNNY     36  28  73 E5        30.19S WCI  32
CHADRON        PTSUNNY   41  20  43 CALM      30.18S
ALLIANCE       MOSUNNY   42  19  39 N6        30.17S
SIDNEY         MOSUNNY   38  22  52 SW5       30.20S WCI  34
CRESCENT LAKE    N/A     42  20  41 N5          N/A
$$

...OBSERVATIONS IN NORTHERN NEBRASKA AND FAR SOUTHERN SOUTH DAKOTA...

CITY           SKY/WX    TMP DP  RH WIND       PRES   REMARKS
WINNER         CLOUDY    35  26  69 CALM      30.26R
VALENTINE      CLEAR     41  25  53 NW5       30.22S
THEDFORD       CLEAR     44  21  39 CALM      30.22R
AINSWORTH      CLEAR     41  26  54 N8        30.22S
O`NEILL        CLEAR     37  27  67 CALM      30.26S
ORD            CLEAR     41  21  44 CALM      30.25S
BROKEN BOW     CLEAR     43  23  45 SW5       30.23R
VALENTINE NWR    N/A     44  22  42 NW6         N/A
BUTTE            N/A     35  27  73 W3          N/A
HALSEY           N/A     46  20  35 NW5         N/A
CHAMBERS         N/A     38  23  55 CALM        N/A
EWING            N/A     36  28  73 CALM        N/A
$$

...OBSERVATIONS IN SOUTHWEST NEBRASKA AND FAR NORTHEAST COLORADO...

CITY           SKY/WX    TMP DP  RH WIND       PRES   REMARKS
HOLYOKE        FAIR      43  23  45 CALM      30.22F
IMPERIAL       CLOUDY    42  23  46 CALM      30.23S
OGALLALA       MOSUNNY   43  24  46 W5        30.22S
NORTH PLATTE   SUNNY     41  20  43 CALM      30.24S
MCCOOK         CLOUDY    42  24  49 CALM      30.25F
LEXINGTON      SUNNY     38  26  61 SW3       30.27R
STAPLETON        N/A     43  22  43 CALM        N/A
GOTHENBURG       N/A     40  23  51 S3          N/A
CALLAWAY         N/A     44  25  46 S6          N/A
$$

...OBSERVATIONS IN CENTRAL LINCOLN COUNTY AREA...

CITY           SKY/WX    TMP DP  RH WIND       PRES   REMARKS
N.P. AIRPORT   SUNNY     41  20  43 CALM      30.24S
N.P. DOWNTOWN    N/A     42  23  47 CALM        N/A
N.P. SOUTHEAST   N/A     42  22  45 CALM        N/A
N.P. HILLCREST   N/A     42  23  46 CALM        N/A
$$

...SOME OBSERVATIONS FROM AROUND THE REGION...

CITY           SKY/WX    TMP DP  RH WIND       PRES   REMARKS
LARAMIE        LGT SNOW  23  16  74 E9        30.08R WCI  13
CHEYENNE       CLOUDY    29  18  63 S9        30.13S WCI  20
DENVER         PTSUNNY   32  23  69 E9        30.14F WCI  24
AKRON          CLOUDY    36  18  48 S3        30.19S
SCOTTSBLUFF    CLOUDY    41  19  41 CALM      30.18F
RAPID CITY     CLOUDY    38  25  59 CALM      30.19R
BISMARCK       CLOUDY    27  20  75 S8        30.24S WCI  19
PIERRE         CLOUDY    30  25  81 S3        30.24F
SIOUX FALLS    CLOUDY    32  25  75 W7        30.29R WCI  26
OMAHA          MOCLDY    39  29  67 N9        30.30S WCI  33
GRAND ISLAND   CLEAR     41  25  53 NW5       30.28R
KANSAS CITY    MOCLDY    48  27  44 N3        30.27F
WICHITA        MOSUNNY   52  20  28 NE10      30.22R
OKLAHOMA CITY  PTSUNNY   54  32  43 N7        30.13F
DALLAS         CLOUDY    64  30  27 E14       30.05F
AMARILLO       CLOUDY    48  22  35 NE15      30.08R
DODGE CITY     SUNNY     49  12  22 NE9       30.21R
HAYS           CLOUDY    45  20  36 N10       30.25R
GOODLAND       MOSUNNY   43  14  31 NE3       30.21S
$$




USA.gov is the U.S. government's official web portal to all federal, state and local government web resources and services.